This is the latest recevied weather packets stored in our database for station/object CRYC. If no packets are shown the sender has not sent any weather packets the latest 10 day(s).
| Time | Temp. | Humidity | Pressure | Rain* | Wind** | Luminosity | Snow |
|---|---|---|---|---|---|---|---|
| 1778009372 | 29.44° C | - | - | 0 mm | 3.58 m/s, 249° | - | - |
| 1778008766 | 28.89° C | - | - | 0 mm | 4.47 m/s, 267° | - | - |
| 1778008161 | 28.89° C | - | - | 0 mm | 3.58 m/s, 250° | - | - |
| 1778007558 | 28.33° C | - | - | 0 mm | 8.49 m/s, 262° | - | - |
| 1778006953 | 28.89° C | - | - | 0 mm | 5.81 m/s, 264° | - | - |
| 1778006350 | 28.89° C | - | - | 0 mm | 1.34 m/s, 239° | - | - |
| 1778005753 | 28.89° C | - | - | 0 mm | 2.68 m/s, 226° | - | - |
| 1778005139 | 28.89° C | - | - | 0 mm | 1.79 m/s, 266° | - | - |
| 1778004535 | 28.89° C | - | - | 0 mm | 1.34 m/s, 224° | - | - |
| 1778003322 | 28.89° C | - | - | 0 mm | 1.34 m/s, 191° | - | - |
| 1778002724 | 28.33° C | - | - | 0 mm | 1.79 m/s, 263° | - | - |
| 1778002115 | 28.33° C | - | - | 0 mm | 6.26 m/s, 228° | - | - |
| 1778001512 | 27.22° C | - | - | 0 mm | 4.92 m/s, 229° | - | - |
| 1778000907 | 27.78° C | - | - | 0 mm | 3.58 m/s, 259° | - | - |
| 1778000303 | 27.22° C | - | - | 0 mm | 2.68 m/s, 239° | - | - |
| 1777999699 | 27.22° C | - | - | 0 mm | 3.13 m/s, 233° | - | - |
| 1777999095 | 26.67° C | - | - | 0 mm | 3.13 m/s, 248° | - | - |
| 1777998491 | 26.11° C | - | - | 0 mm | 3.58 m/s, 231° | - | - |
| 1777997888 | 26.11° C | - | - | 0 mm | 4.92 m/s, 263° | - | - |
| 1777997283 | 26.11° C | - | - | 0 mm | 3.58 m/s, 246° | - | - |
| 1777996678 | 26.11° C | - | - | 0 mm | 6.26 m/s, 238° | - | - |
| 1777996074 | 26.11° C | - | - | 0 mm | 1.79 m/s, 263° | - | - |
| 1777995469 | 26.11° C | - | - | 0 mm | 3.58 m/s, 257° | - | - |
| 1777994262 | 25° C | - | - | 0 mm | 4.02 m/s, 260° | - | - |
| 1777993659 | 25.56° C | - | - | 0 mm | 3.58 m/s, 255° | - | - |
* Rain latest hour (hover to see other rain measurements)
** Current wind speed in m/s (hover to see current wind gust speed)